Information on these data can be found in provided Readme document
Contact Info: Zachary Fasnacht (zachary.fasnacht@ssaihq.com); Nickolay Krotkov (nickolay.a.krotkov@nasa.gov); Lok Lamsal (lok.lamsal@nasa.gov)

FillValue: -999.
ScaleFactor: 1e15
Units: molecules/cm^2

Date(yyyy-mm-dd),City,Country,LonCenter,LatCenter,BoundingCoordinates,Median,Q1,Q3,Mean,Baseline_Median,Baseline_Q1,Baseline_Q3,Baseline_Mean,NumGoodSamples,NumTotalSamples
2015-01-01,PortofGhent,Belgium,3.7498,51.1064,[3.2498 50.6064 4.2498 51.6064],4.812,3.451,6.381,5.225,6.186,4.31,7.769,6.136,87.0,670.0
2015-01-02,PortofGhent,Belgium,3.7498,51.1064,[3.2498 50.6064 4.2498 51.6064],4.812,3.451,6.613,5.294,6.054,4.125,7.836,6.007,71.0,667.0
2015-01-03,PortofGhent,Belgium,3.7498,51.1064,[3.2498 50.6064 4.2498 51.6064],4.812,3.451,6.613,5.294,5.985,4.054,7.821,5.993,71.0,666.0
2015-01-04,PortofGhent,Belgium,3.7498,51.1064,[3.2498 50.6064 4.2498 51.6064],4.675,3.232,6.599,5.179,6.02,4.055,7.846,6.034,76.0,668.0
2015-01-05,PortofGhent,Belgium,3.7498,51.1064,[3.2498 50.6064 4.2498 51.6064],4.812,3.232,6.613,5.184,5.576,3.696,7.612,5.755,75.0,669.0
2015-01-06,PortofGhent,Belgium,3.7498,51.1064,[3.2498 50.6064 4.2498 51.6064],4.812,3.232,6.613,5.184,5.823,3.808,7.837,6.048,75.0,675.0
2015-01-07,PortofGhent,Belgium,3.7498,51.1064,[3.2498 50.6064 4.2498 51.6064],4.931,3.476,6.818,5.484,5.876,3.871,7.698,6.112,90.0,680.0
2015-01-08,PortofGhent,Belgium,3.7498,51.1064,[3.2498 50.6064 4.2498 51.6064],4.892,3.451,6.679,5.299,5.759,3.849,7.499,5.958,84.0,668.0
2015-01-09,PortofGhent,Belgium,3.7498,51.1064,[3.2498 50.6064 4.2498 51.6064],4.892,3.381,6.818,5.437,5.575,3.779,7.476,5.912,84.0,682.0
2015-01-10,PortofGhent,Belgium,3.7498,51.1064,[3.2498 50.6064 4.2498 51.6064],5.102,3.771,8.163,5.96,7.746,5.128,10.019,7.754,70.0,628.0
2015-01-11,PortofGhent,Belgium,3.7498,51.1064,[3.2498 50.6064 4.2498 51.6064],5.102,3.771,8.163,5.96,7.802,5.092,9.912,7.728,70.0,628.0
2015-01-12,PortofGhent,Belgium,3.7498,51.1064,[3.2498 50.6064 4.2498 51.6064],6.663,4.147,9.515,7.143,8.908,6.064,11.07,8.964,70.0,634.0
2015-01-13,PortofGhent,Belgium,3.7498,51.1064,[3.2498 50.6064 4.2498 51.6064],6.886,4.677,9.534,7.525,9.174,6.474,11.059,9.128,62.0,634.0
2015-01-14,PortofGhent,Belgium,3.7498,51.1064,[3.2498 50.6064 4.2498 51.6064],6.679,4.677,9.534,7.434,9.771,7.226,12.476,9.957,66.0,642.0
2015-01-15,PortofGhent,Belgium,3.7498,51.1064,[3.2498 50.6064 4.2498 51.6064],6.662,4.554,9.001,7.1,9.89,7.224,12.476,9.978,50.0,638.0
2015-01-16,PortofGhent,Belgium,3.7498,51.1064,[3.2498 50.6064 4.2498 51.6064],6.679,4.677,9.534,7.522,10.017,7.606,13.111,10.376,57.0,643.0
2015-01-17,PortofGhent,Belgium,3.7498,51.1064,[3.2498 50.6064 4.2498 51.6064],6.679,4.677,9.534,7.522,10.413,8.284,13.254,10.788,57.0,636.0
2015-01-18,PortofGhent,Belgium,3.7498,51.1064,[3.2498 50.6064 4.2498 51.6064],6.679,4.677,9.534,7.522,10.454,8.365,13.461,10.929,57.0,635.0
2015-01-19,PortofGhent,Belgium,3.7498,51.1064,[3.2498 50.6064 4.2498 51.6064],6.886,5.029,9.631,7.872,10.465,8.506,13.576,11.086,52.0,627.0
2015-01-20,PortofGhent,Belgium,3.7498,51.1064,[3.2498 50.6064 4.2498 51.6064],6.886,5.029,9.631,7.872,10.483,8.54,13.563,11.088,52.0,629.0
2015-01-21,PortofGhent,Belgium,3.7498,51.1064,[3.2498 50.6064 4.2498 51.6064],6.886,5.029,9.631,7.872,10.38,8.227,13.242,10.813,52.0,628.0
2015-01-22,PortofGhent,Belgium,3.7498,51.1064,[3.2498 50.6064 4.2498 51.6064],8.228,4.554,10.861,8.276,11.132,8.593,13.657,11.305,37.0,635.0
2015-01-23,PortofGhent,Belgium,3.7498,51.1064,[3.2498 50.6064 4.2498 51.6064],8.228,4.554,10.861,8.276,11.045,8.491,13.595,11.27,37.0,642.0
2015-01-24,PortofGhent,Belgium,3.7498,51.1064,[3.2498 50.6064 4.2498 51.6064],11.361,9.631,13.895,11.05,11.328,8.917,13.869,11.547,21.0,633.0
2015-01-25,PortofGhent,Belgium,3.7498,51.1064,[3.2498 50.6064 4.2498 51.6064],11.361,9.631,13.895,11.05,11.056,8.46,13.817,11.349,21.0,682.0
2015-01-26,PortofGhent,Belgium,3.7498,51.1064,[3.2498 50.6064 4.2498 51.6064],11.943,7.488,14.488,11.248,10.938,7.815,13.933,11.023,37.0,663.0
2015-01-27,PortofGhent,Belgium,3.7498,51.1064,[3.2498 50.6064 4.2498 51.6064],10.861,6.99,12.909,10.446,10.025,7.117,13.583,10.208,29.0,660.0
2015-01-28,PortofGhent,Belgium,3.7498,51.1064,[3.2498 50.6064 4.2498 51.6064],10.094,7.488,14.741,11.597,10.683,7.395,13.655,10.457,44.0,664.0
2015-01-29,PortofGhent,Belgium,3.7498,51.1064,[3.2498 50.6064 4.2498 51.6064],11.509,7.871,15.713,12.453,10.171,7.069,13.586,10.38,40.0,664.0
2015-01-30,PortofGhent,Belgium,3.7498,51.1064,[3.2498 50.6064 4.2498 51.6064],11.467,8.397,13.744,11.897,10.717,7.956,13.45,10.898,78.0,671.0
2015-01-31,PortofGhent,Belgium,3.7498,51.1064,[3.2498 50.6064 4.2498 51.6064],11.467,8.397,14.298,11.916,10.864,8.114,13.574,10.941,71.0,667.0
2015-02-01,PortofGhent,Belgium,3.7498,51.1064,[3.2498 50.6064 4.2498 51.6064],11.387,8.187,13.744,11.639,10.858,8.074,13.307,10.838,74.0,674.0
2015-02-02,PortofGhent,Belgium,3.7498,51.1064,[3.2498 50.6064 4.2498 51.6064],11.387,8.187,13.744,11.639,10.523,7.862,13.003,10.657,74.0,665.0
2015-02-03,PortofGhent,Belgium,3.7498,51.1064,[3.2498 50.6064 4.2498 51.6064],11.387,8.187,13.744,11.639,10.18,7.594,12.809,10.48,74.0,666.0
2015-02-04,PortofGhent,Belgium,3.7498,51.1064,[3.2498 50.6064 4.2498 51.6064],11.387,8.187,13.744,11.639,10.171,7.53,12.73,10.705,74.0,660.0
2015-02-05,PortofGhent,Belgium,3.7498,51.1064,[3.2498 50.6064 4.2498 51.6064],10.868,8.187,13.331,11.581,10.414,7.14,14.412,10.787,76.0,662.0
2015-02-06,PortofGhent,Belgium,3.7498,51.1064,[3.2498 50.6064 4.2498 51.6064],10.868,7.909,12.562,11.243,10.386,5.888,14.448,10.402,107.0,661.0
2015-02-07,PortofGhent,Belgium,3.7498,51.1064,[3.2498 50.6064 4.2498 51.6064],10.868,7.909,12.562,11.243,9.553,5.69,13.864,9.926,107.0,666.0
2015-02-08,PortofGhent,Belgium,3.7498,51.1064,[3.2498 50.6064 4.2498 51.6064],11.682,9.15,14.255,12.343,9.649,6.462,13.366,10.127,142.0,673.0
2015-02-09,PortofGhent,Belgium,3.7498,51.1064,[3.2498 50.6064 4.2498 51.6064],11.682,9.15,14.255,12.343,9.433,6.25,13.353,10.074,142.0,662.0
2015-02-10,PortofGhent,Belgium,3.7498,51.1064,[3.2498 50.6064 4.2498 51.6064],11.682,9.15,14.094,12.211,9.627,6.592,13.082,10.107,130.0,677.0
2015-02-11,PortofGhent,Belgium,3.7498,51.1064,[3.2498 50.6064 4.2498 51.6064],11.682,9.086,14.255,12.223,9.608,6.747,13.214,10.164,128.0,628.0
2015-02-12,PortofGhent,Belgium,3.7498,51.1064,[3.2498 50.6064 4.2498 51.6064],11.593,9.15,13.798,11.846,9.506,6.652,13.075,10.039,122.0,628.0
2015-02-13,PortofGhent,Belgium,3.7498,51.1064,[3.2498 50.6064 4.2498 51.6064],11.593,9.15,13.798,11.846,9.193,6.522,12.461,9.678,122.0,633.0
2015-02-14,PortofGhent,Belgium,3.7498,51.1064,[3.2498 50.6064 4.2498 51.6064],11.952,9.315,13.989,12.002,9.271,6.414,12.728,9.797,84.0,634.0
2015-02-15,PortofGhent,Belgium,3.7498,51.1064,[3.2498 50.6064 4.2498 51.6064],11.226,7.85,13.576,11.262,9.231,6.294,12.482,9.654,113.0,642.0
2015-02-16,PortofGhent,Belgium,3.7498,51.1064,[3.2498 50.6064 4.2498 51.6064],11.254,7.909,13.576,11.401,9.364,6.371,12.737,9.749,110.0,638.0
2015-02-17,PortofGhent,Belgium,3.7498,51.1064,[3.2498 50.6064 4.2498 51.6064],11.002,7.355,13.147,10.998,9.424,6.418,12.78,9.823,120.0,643.0
2015-02-18,PortofGhent,Belgium,3.7498,51.1064,[3.2498 50.6064 4.2498 51.6064],11.002,7.355,13.147,10.998,9.234,6.461,12.555,9.755,120.0,635.0
2015-02-19,PortofGhent,Belgium,3.7498,51.1064,[3.2498 50.6064 4.2498 51.6064],11.002,7.355,13.147,10.998,9.292,6.542,12.468,9.784,120.0,635.0
2015-02-20,PortofGhent,Belgium,3.7498,51.1064,[3.2498 50.6064 4.2498 51.6064],9.422,6.86,12.025,10.002,9.605,6.838,12.752,10.007,153.0,629.0
2015-02-21,PortofGhent,Belgium,3.7498,51.1064,[3.2498 50.6064 4.2498 51.6064],8.29,6.761,11.718,9.532,9.855,7.279,12.988,10.37,130.0,630.0
2015-02-22,PortofGhent,Belgium,3.7498,51.1064,[3.2498 50.6064 4.2498 51.6064],7.992,5.675,11.254,9.033,10.019,7.169,13.056,10.509,150.0,629.0
2015-02-23,PortofGhent,Belgium,3.7498,51.1064,[3.2498 50.6064 4.2498 51.6064],6.987,5.39,8.906,7.226,9.965,7.466,12.758,10.457,115.0,632.0
2015-02-24,PortofGhent,Belgium,3.7498,51.1064,[3.2498 50.6064 4.2498 51.6064],6.987,5.405,9.347,7.287,10.197,7.768,13.121,10.515,121.0,637.0
2015-02-25,PortofGhent,Belgium,3.7498,51.1064,[3.2498 50.6064 4.2498 51.6064],7.025,5.417,9.409,7.379,10.435,7.581,13.388,10.606,117.0,627.0
2015-02-26,PortofGhent,Belgium,3.7498,51.1064,[3.2498 50.6064 4.2498 51.6064],7.448,5.601,10.346,7.783,10.221,7.693,13.221,10.491,131.0,676.0
2015-02-27,PortofGhent,Belgium,3.7498,51.1064,[3.2498 50.6064 4.2498 51.6064],7.448,5.417,10.117,7.678,10.527,7.718,13.423,10.658,125.0,659.0
2015-02-28,PortofGhent,Belgium,3.7498,51.1064,[3.2498 50.6064 4.2498 51.6064],7.576,5.508,10.117,7.757,10.547,7.732,13.408,10.646,128.0,662.0
2015-03-01,PortofGhent,Belgium,3.7498,51.1064,[3.2498 50.6064 4.2498 51.6064],7.025,5.244,9.23,7.289,9.783,6.897,12.705,9.972,170.0,667.0
2015-03-02,PortofGhent,Belgium,3.7498,51.1064,[3.2498 50.6064 4.2498 51.6064],6.789,5.01,8.707,6.965,10.031,6.839,12.754,10.049,141.0,667.0
2015-03-03,PortofGhent,Belgium,3.7498,51.1064,[3.2498 50.6064 4.2498 51.6064],7.204,5.244,10.19,7.694,9.707,6.619,12.798,9.89,178.0,674.0
2015-03-04,PortofGhent,Belgium,3.7498,51.1064,[3.2498 50.6064 4.2498 51.6064],6.91,5.244,10.271,7.714,10.033,6.908,14.228,10.739,168.0,671.0
2015-03-05,PortofGhent,Belgium,3.7498,51.1064,[3.2498 50.6064 4.2498 51.6064],7.992,5.407,11.287,8.615,9.951,7.15,14.264,10.978,195.0,677.0
2015-03-06,PortofGhent,Belgium,3.7498,51.1064,[3.2498 50.6064 4.2498 51.6064],7.992,5.407,11.287,8.615,10.03,7.187,13.807,10.873,195.0,669.0
2015-03-07,PortofGhent,Belgium,3.7498,51.1064,[3.2498 50.6064 4.2498 51.6064],8.29,5.407,11.968,8.948,9.85,7.069,13.25,10.706,163.0,668.0
2015-03-08,PortofGhent,Belgium,3.7498,51.1064,[3.2498 50.6064 4.2498 51.6064],8.696,5.5,12.345,9.161,9.53,6.717,12.707,10.269,155.0,664.0
2015-03-09,PortofGhent,Belgium,3.7498,51.1064,[3.2498 50.6064 4.2498 51.6064],9.23,6.039,12.728,9.752,9.594,6.736,12.802,10.416,138.0,668.0
2015-03-10,PortofGhent,Belgium,3.7498,51.1064,[3.2498 50.6064 4.2498 51.6064],11.271,7.169,15.785,11.904,10.414,7.048,13.863,11.114,179.0,668.0
2015-03-11,PortofGhent,Belgium,3.7498,51.1064,[3.2498 50.6064 4.2498 51.6064],11.41,7.169,15.992,12.053,10.948,7.574,14.81,11.653,173.0,673.0
2015-03-12,PortofGhent,Belgium,3.7498,51.1064,[3.2498 50.6064 4.2498 51.6064],11.41,7.169,15.992,12.053,10.914,7.636,14.634,11.721,173.0,680.0
2015-03-13,PortofGhent,Belgium,3.7498,51.1064,[3.2498 50.6064 4.2498 51.6064],11.543,6.91,16.422,12.172,11.175,7.849,14.968,11.994,159.0,669.0
2015-03-14,PortofGhent,Belgium,3.7498,51.1064,[3.2498 50.6064 4.2498 51.6064],11.543,6.91,16.739,12.236,11.085,7.696,14.835,11.794,156.0,684.0
2015-03-15,PortofGhent,Belgium,3.7498,51.1064,[3.2498 50.6064 4.2498 51.6064],11.543,6.91,16.422,12.208,11.068,7.662,14.57,11.726,153.0,630.0
2015-03-16,PortofGhent,Belgium,3.7498,51.1064,[3.2498 50.6064 4.2498 51.6064],14.772,10.049,17.731,14.368,11.971,8.642,14.727,12.288,119.0,631.0
2015-03-17,PortofGhent,Belgium,3.7498,51.1064,[3.2498 50.6064 4.2498 51.6064],14.772,10.049,17.731,14.365,11.931,8.546,15.242,12.398,120.0,636.0
2015-03-18,PortofGhent,Belgium,3.7498,51.1064,[3.2498 50.6064 4.2498 51.6064],15.571,11.293,19.994,15.821,12.008,8.908,15.628,12.839,83.0,636.0
2015-03-19,PortofGhent,Belgium,3.7498,51.1064,[3.2498 50.6064 4.2498 51.6064],15.571,11.293,19.994,15.821,10.736,7.953,14.181,11.379,83.0,649.0
2015-03-20,PortofGhent,Belgium,3.7498,51.1064,[3.2498 50.6064 4.2498 51.6064],17.138,12.835,21.583,17.263,10.734,7.376,14.204,11.06,56.0,664.0
2015-03-21,PortofGhent,Belgium,3.7498,51.1064,[3.2498 50.6064 4.2498 51.6064],17.138,12.835,21.583,17.263,11.064,7.558,14.208,11.212,56.0,667.0
2015-03-22,PortofGhent,Belgium,3.7498,51.1064,[3.2498 50.6064 4.2498 51.6064],18.43,15.038,21.583,18.209,10.406,6.908,14.229,10.727,53.0,662.0
2015-03-23,PortofGhent,Belgium,3.7498,51.1064,[3.2498 50.6064 4.2498 51.6064],18.43,15.038,21.583,18.209,9.349,6.327,14.321,10.519,53.0,658.0
2015-03-24,PortofGhent,Belgium,3.7498,51.1064,[3.2498 50.6064 4.2498 51.6064],11.191,5.562,19.197,12.71,8.692,5.168,14.576,10.083,82.0,651.0
2015-03-25,PortofGhent,Belgium,3.7498,51.1064,[3.2498 50.6064 4.2498 51.6064],5.532,3.992,7.741,6.318,8.286,5.332,12.777,9.255,50.0,657.0
2015-03-26,PortofGhent,Belgium,3.7498,51.1064,[3.2498 50.6064 4.2498 51.6064],4.342,2.918,5.98,4.966,7.794,5.237,10.926,8.412,81.0,656.0
2015-03-27,PortofGhent,Belgium,3.7498,51.1064,[3.2498 50.6064 4.2498 51.6064],4.342,2.918,5.98,4.966,7.703,5.315,10.69,8.397,81.0,659.0
2015-03-28,PortofGhent,Belgium,3.7498,51.1064,[3.2498 50.6064 4.2498 51.6064],4.462,2.965,6.336,5.026,7.519,5.19,10.819,8.276,86.0,665.0
2015-03-29,PortofGhent,Belgium,3.7498,51.1064,[3.2498 50.6064 4.2498 51.6064],4.462,2.965,6.336,5.026,7.701,5.304,11.004,8.376,86.0,656.0
2015-03-30,PortofGhent,Belgium,3.7498,51.1064,[3.2498 50.6064 4.2498 51.6064],4.462,2.965,6.336,5.026,7.675,5.298,10.938,8.366,86.0,699.0
2015-03-31,PortofGhent,Belgium,3.7498,51.1064,[3.2498 50.6064 4.2498 51.6064],4.494,2.989,6.512,5.772,7.55,4.74,10.558,8.191,104.0,682.0
2015-04-01,PortofGhent,Belgium,3.7498,51.1064,[3.2498 50.6064 4.2498 51.6064],4.95,3.274,6.512,5.769,7.225,4.828,10.294,7.939,116.0,681.0
2015-04-02,PortofGhent,Belgium,3.7498,51.1064,[3.2498 50.6064 4.2498 51.6064],5.682,3.954,13.248,8.85,6.97,4.747,11.088,8.203,158.0,686.0
2015-04-03,PortofGhent,Belgium,3.7498,51.1064,[3.2498 50.6064 4.2498 51.6064],7.012,4.3,16.698,10.731,7.429,5.055,12.359,8.938,169.0,682.0
2015-04-04,PortofGhent,Belgium,3.7498,51.1064,[3.2498 50.6064 4.2498 51.6064],7.012,4.3,16.698,10.731,7.413,4.984,12.285,8.923,169.0,670.0
2015-04-05,PortofGhent,Belgium,3.7498,51.1064,[3.2498 50.6064 4.2498 51.6064],7.012,4.3,16.698,10.731,7.283,4.927,12.06,8.824,169.0,668.0
2015-04-06,PortofGhent,Belgium,3.7498,51.1064,[3.2498 50.6064 4.2498 51.6064],7.492,4.342,16.698,10.74,7.545,5.102,12.091,8.948,172.0,670.0
2015-04-07,PortofGhent,Belgium,3.7498,51.1064,[3.2498 50.6064 4.2498 51.6064],7.492,4.342,16.698,10.74,7.458,4.892,11.981,8.892,172.0,685.0
2015-04-08,PortofGhent,Belgium,3.7498,51.1064,[3.2498 50.6064 4.2498 51.6064],10.683,4.342,17.776,11.752,8.486,5.174,12.465,9.364,157.0,718.0
2015-04-09,PortofGhent,Belgium,3.7498,51.1064,[3.2498 50.6064 4.2498 51.6064],10.804,6.296,16.698,12.111,8.253,5.366,12.006,9.295,172.0,731.0
2015-04-10,PortofGhent,Belgium,3.7498,51.1064,[3.2498 50.6064 4.2498 51.6064],11.579,8.043,18.228,13.694,8.059,5.613,11.761,9.217,151.0,734.0
2015-04-11,PortofGhent,Belgium,3.7498,51.1064,[3.2498 50.6064 4.2498 51.6064],10.295,7.565,16.008,12.463,8.096,5.86,11.525,9.211,191.0,734.0
2015-04-12,PortofGhent,Belgium,3.7498,51.1064,[3.2498 50.6064 4.2498 51.6064],10.03,7.565,15.884,12.319,8.185,6.064,11.648,9.346,192.0,739.0
2015-04-13,PortofGhent,Belgium,3.7498,51.1064,[3.2498 50.6064 4.2498 51.6064],10.804,7.641,17.635,12.882,8.334,5.975,12.661,9.853,229.0,745.0
2015-04-14,PortofGhent,Belgium,3.7498,51.1064,[3.2498 50.6064 4.2498 51.6064],10.804,7.641,17.635,12.882,8.623,5.779,12.597,9.696,229.0,740.0
2015-04-15,PortofGhent,Belgium,3.7498,51.1064,[3.2498 50.6064 4.2498 51.6064],10.667,7.633,16.698,12.746,8.611,5.852,12.309,9.67,207.0,749.0
2015-04-16,PortofGhent,Belgium,3.7498,51.1064,[3.2498 50.6064 4.2498 51.6064],10.806,7.742,17.647,13.095,8.477,5.689,12.275,9.557,194.0,699.0
2015-04-17,PortofGhent,Belgium,3.7498,51.1064,[3.2498 50.6064 4.2498 51.6064],10.55,7.73,15.791,12.348,8.491,5.744,12.548,9.475,169.0,758.0
2015-04-18,PortofGhent,Belgium,3.7498,51.1064,[3.2498 50.6064 4.2498 51.6064],9.286,7.593,11.248,10.822,7.948,5.487,10.44,8.85,162.0,763.0
2015-04-19,PortofGhent,Belgium,3.7498,51.1064,[3.2498 50.6064 4.2498 51.6064],9.286,7.593,11.248,10.822,7.831,5.563,10.993,8.873,162.0,798.0
2015-04-20,PortofGhent,Belgium,3.7498,51.1064,[3.2498 50.6064 4.2498 51.6064],8.718,7.19,11.196,10.261,7.69,5.583,10.464,8.736,192.0,835.0
2015-04-21,PortofGhent,Belgium,3.7498,51.1064,[3.2498 50.6064 4.2498 51.6064],8.67,7.186,11.196,10.243,7.756,5.428,11.015,8.747,189.0,854.0
2015-04-22,PortofGhent,Belgium,3.7498,51.1064,[3.2498 50.6064 4.2498 51.6064],8.67,7.186,11.196,10.243,7.848,5.442,11.228,8.814,189.0,840.0
2015-04-23,PortofGhent,Belgium,3.7498,51.1064,[3.2498 50.6064 4.2498 51.6064],8.689,7.03,11.237,10.395,7.508,5.266,10.268,8.502,172.0,799.0
2015-04-24,PortofGhent,Belgium,3.7498,51.1064,[3.2498 50.6064 4.2498 51.6064],8.815,7.03,12.008,10.582,7.797,5.233,11.235,8.609,160.0,775.0
2015-04-25,PortofGhent,Belgium,3.7498,51.1064,[3.2498 50.6064 4.2498 51.6064],8.844,6.8,12.057,10.561,7.925,5.505,11.292,8.652,157.0,771.0
2015-04-26,PortofGhent,Belgium,3.7498,51.1064,[3.2498 50.6064 4.2498 51.6064],10.721,7.265,15.287,11.447,7.989,5.211,11.592,8.548,117.0,771.0
2015-04-27,PortofGhent,Belgium,3.7498,51.1064,[3.2498 50.6064 4.2498 51.6064],10.787,7.03,15.287,11.414,7.64,5.053,11.327,8.356,120.0,771.0
2015-04-28,PortofGhent,Belgium,3.7498,51.1064,[3.2498 50.6064 4.2498 51.6064],8.568,5.9,11.618,9.527,7.058,4.985,9.232,7.458,83.0,774.0
2015-04-29,PortofGhent,Belgium,3.7498,51.1064,[3.2498 50.6064 4.2498 51.6064],7.386,4.524,11.254,8.634,6.723,4.484,9.148,7.377,96.0,780.0
2015-04-30,PortofGhent,Belgium,3.7498,51.1064,[3.2498 50.6064 4.2498 51.6064],7.386,4.447,11.218,8.485,6.882,4.584,9.344,7.498,92.0,773.0
2015-05-01,PortofGhent,Belgium,3.7498,51.1064,[3.2498 50.6064 4.2498 51.6064],7.91,4.641,11.618,9.502,7.089,4.634,9.915,7.758,112.0,824.0
2015-05-02,PortofGhent,Belgium,3.7498,51.1064,[3.2498 50.6064 4.2498 51.6064],7.03,4.119,11.254,8.289,7.04,4.629,9.837,7.621,99.0,749.0
2015-05-03,PortofGhent,Belgium,3.7498,51.1064,[3.2498 50.6064 4.2498 51.6064],6.334,3.923,11.057,7.978,7.078,4.804,9.828,7.694,110.0,748.0
2015-05-04,PortofGhent,Belgium,3.7498,51.1064,[3.2498 50.6064 4.2498 51.6064],6.078,3.571,9.003,7.277,7.033,4.74,9.609,7.62,148.0,718.0
2015-05-05,PortofGhent,Belgium,3.7498,51.1064,[3.2498 50.6064 4.2498 51.6064],6.078,3.521,8.296,7.113,6.928,4.654,9.415,7.512,123.0,688.0
2015-05-06,PortofGhent,Belgium,3.7498,51.1064,[3.2498 50.6064 4.2498 51.6064],6.58,3.69,10.393,7.873,7.163,4.777,9.958,7.842,160.0,675.0
2015-05-07,PortofGhent,Belgium,3.7498,51.1064,[3.2498 50.6064 4.2498 51.6064],6.58,3.69,10.393,7.873,7.059,4.803,9.952,7.698,160.0,672.0
2015-05-08,PortofGhent,Belgium,3.7498,51.1064,[3.2498 50.6064 4.2498 51.6064],6.171,3.733,9.793,7.453,7.183,5.163,9.865,7.793,181.0,677.0
2015-05-09,PortofGhent,Belgium,3.7498,51.1064,[3.2498 50.6064 4.2498 51.6064],5.937,3.68,8.296,7.111,7.203,5.094,9.535,7.675,169.0,694.0
2015-05-10,PortofGhent,Belgium,3.7498,51.1064,[3.2498 50.6064 4.2498 51.6064],5.521,3.545,8.218,6.82,7.002,5.064,9.702,7.629,180.0,735.0
2015-05-11,PortofGhent,Belgium,3.7498,51.1064,[3.2498 50.6064 4.2498 51.6064],5.521,3.545,8.218,6.82,7.007,5.081,9.721,7.647,180.0,755.0
2015-05-12,PortofGhent,Belgium,3.7498,51.1064,[3.2498 50.6064 4.2498 51.6064],5.138,3.521,8.218,6.799,6.885,5.094,9.801,7.646,174.0,765.0
2015-05-13,PortofGhent,Belgium,3.7498,51.1064,[3.2498 50.6064 4.2498 51.6064],5.138,3.545,8.031,6.625,6.751,5.108,9.727,7.572,200.0,766.0
2015-05-14,PortofGhent,Belgium,3.7498,51.1064,[3.2498 50.6064 4.2498 51.6064],5.949,3.795,8.223,6.904,6.886,4.916,9.271,7.468,193.0,787.0
2015-05-15,PortofGhent,Belgium,3.7498,51.1064,[3.2498 50.6064 4.2498 51.6064],6.204,3.836,8.886,7.47,6.922,4.615,9.415,7.504,213.0,793.0
2015-05-16,PortofGhent,Belgium,3.7498,51.1064,[3.2498 50.6064 4.2498 51.6064],5.949,3.805,8.296,6.803,6.641,4.453,8.972,7.17,193.0,801.0
2015-05-17,PortofGhent,Belgium,3.7498,51.1064,[3.2498 50.6064 4.2498 51.6064],5.761,3.836,8.296,6.797,6.414,4.365,8.792,6.947,208.0,813.0
2015-05-18,PortofGhent,Belgium,3.7498,51.1064,[3.2498 50.6064 4.2498 51.6064],5.761,3.836,8.364,6.904,6.279,4.351,8.662,6.907,193.0,762.0
2015-05-19,PortofGhent,Belgium,3.7498,51.1064,[3.2498 50.6064 4.2498 51.6064],5.949,4.102,8.747,7.106,6.283,4.379,8.547,6.79,161.0,784.0
2015-05-20,PortofGhent,Belgium,3.7498,51.1064,[3.2498 50.6064 4.2498 51.6064],5.949,4.216,9.064,7.259,6.385,4.464,9.115,6.978,190.0,790.0
2015-05-21,PortofGhent,Belgium,3.7498,51.1064,[3.2498 50.6064 4.2498 51.6064],5.154,4.102,7.219,6.475,6.168,4.341,8.647,6.84,154.0,822.0
2015-05-22,PortofGhent,Belgium,3.7498,51.1064,[3.2498 50.6064 4.2498 51.6064],5.154,4.102,7.219,6.475,6.17,4.311,8.591,6.916,154.0,857.0
2015-05-23,PortofGhent,Belgium,3.7498,51.1064,[3.2498 50.6064 4.2498 51.6064],5.68,4.119,7.63,6.794,6.101,4.174,8.309,6.794,133.0,874.0
2015-05-24,PortofGhent,Belgium,3.7498,51.1064,[3.2498 50.6064 4.2498 51.6064],5.68,4.119,7.63,6.794,6.115,4.269,8.451,6.846,133.0,861.0
2015-05-25,PortofGhent,Belgium,3.7498,51.1064,[3.2498 50.6064 4.2498 51.6064],6.212,4.216,8.499,7.244,6.187,4.23,8.542,6.899,115.0,830.0
2015-05-26,PortofGhent,Belgium,3.7498,51.1064,[3.2498 50.6064 4.2498 51.6064],6.212,4.216,8.499,7.244,6.015,4.024,8.327,6.704,115.0,811.0
2015-05-27,PortofGhent,Belgium,3.7498,51.1064,[3.2498 50.6064 4.2498 51.6064],5.608,3.868,7.992,6.888,5.865,3.865,8.151,6.532,123.0,822.0
2015-05-28,PortofGhent,Belgium,3.7498,51.1064,[3.2498 50.6064 4.2498 51.6064],6.786,4.119,9.064,7.699,5.934,3.721,8.308,6.559,113.0,834.0
2015-05-29,PortofGhent,Belgium,3.7498,51.1064,[3.2498 50.6064 4.2498 51.6064],5.371,4.102,8.886,7.038,5.636,3.813,8.205,6.459,138.0,842.0
2015-05-30,PortofGhent,Belgium,3.7498,51.1064,[3.2498 50.6064 4.2498 51.6064],4.874,3.439,7.324,5.656,5.657,3.924,8.18,6.38,128.0,862.0
2015-05-31,PortofGhent,Belgium,3.7498,51.1064,[3.2498 50.6064 4.2498 51.6064],4.37,2.782,6.239,4.936,5.603,3.899,7.94,6.324,165.0,880.0
2015-06-01,PortofGhent,Belgium,3.7498,51.1064,[3.2498 50.6064 4.2498 51.6064],4.289,2.614,5.724,4.822,5.536,3.753,7.819,6.238,146.0,893.0
2015-06-02,PortofGhent,Belgium,3.7498,51.1064,[3.2498 50.6064 4.2498 51.6064],4.37,2.782,6.6,4.962,5.53,3.738,8.035,6.281,153.0,971.0
2015-06-03,PortofGhent,Belgium,3.7498,51.1064,[3.2498 50.6064 4.2498 51.6064],4.807,2.841,7.463,5.356,5.351,3.275,8.304,6.163,170.0,956.0
2015-06-04,PortofGhent,Belgium,3.7498,51.1064,[3.2498 50.6064 4.2498 51.6064],4.957,2.802,8.09,5.598,5.072,3.114,7.961,5.911,156.0,980.0
2015-06-05,PortofGhent,Belgium,3.7498,51.1064,[3.2498 50.6064 4.2498 51.6064],5.099,3.133,8.047,5.637,4.767,3.007,7.42,5.494,176.0,979.0
2015-06-06,PortofGhent,Belgium,3.7498,51.1064,[3.2498 50.6064 4.2498 51.6064],4.764,2.799,7.538,5.272,4.366,2.603,6.959,5.034,185.0,976.0
2015-06-07,PortofGhent,Belgium,3.7498,51.1064,[3.2498 50.6064 4.2498 51.6064],4.515,3.117,7.474,5.241,4.181,2.661,6.865,4.869,212.0,994.0
2015-06-08,PortofGhent,Belgium,3.7498,51.1064,[3.2498 50.6064 4.2498 51.6064],4.515,3.117,7.474,5.241,4.139,2.616,6.805,4.838,212.0,1006.0
2015-06-09,PortofGhent,Belgium,3.7498,51.1064,[3.2498 50.6064 4.2498 51.6064],4.957,3.148,8.09,5.703,4.165,2.516,6.718,4.771,236.0,992.0
2015-06-10,PortofGhent,Belgium,3.7498,51.1064,[3.2498 50.6064 4.2498 51.6064],4.957,3.148,8.09,5.703,4.09,2.444,6.598,4.74,236.0,1001.0
2015-06-11,PortofGhent,Belgium,3.7498,51.1064,[3.2498 50.6064 4.2498 51.6064],5.057,3.148,8.263,5.746,4.155,2.535,6.89,4.909,229.0,1011.0
2015-06-12,PortofGhent,Belgium,3.7498,51.1064,[3.2498 50.6064 4.2498 51.6064],4.764,3.117,7.573,5.356,4.086,2.501,6.742,4.747,216.0,1019.0
2015-06-13,PortofGhent,Belgium,3.7498,51.1064,[3.2498 50.6064 4.2498 51.6064],4.515,2.492,8.09,5.431,3.805,2.164,6.643,4.635,187.0,1026.0
2015-06-14,PortofGhent,Belgium,3.7498,51.1064,[3.2498 50.6064 4.2498 51.6064],4.531,2.614,8.127,5.472,3.607,2.012,6.294,4.271,189.0,1038.0
2015-06-15,PortofGhent,Belgium,3.7498,51.1064,[3.2498 50.6064 4.2498 51.6064],5.851,3.231,9.223,6.211,3.833,2.106,6.244,4.321,152.0,1030.0
2015-06-16,PortofGhent,Belgium,3.7498,51.1064,[3.2498 50.6064 4.2498 51.6064],5.828,3.231,9.223,6.187,3.871,2.103,6.172,4.318,154.0,1046.0
2015-06-17,PortofGhent,Belgium,3.7498,51.1064,[3.2498 50.6064 4.2498 51.6064],5.729,3.211,9.223,6.108,3.655,2.028,5.755,4.081,147.0,1028.0